Powrót do katalogu

FENGYUN 1C DEB

AktywnyPO
NORAD 35169·DEBRIS·🇨🇳 China

Wystrzelony May 10, 1999 z Taiyuan Satellite Launch Center

Loading…

Następne Przeloty (najbliższe 24 godziny)

TLE

NieaktualneSource: Space-Track

Epoka: Aug 29, 2026, 12:05 UTC

1 35169U 99025DMZ 26241.50400413  .00003266  00000-0  59127-3 0  9995
2 35169  99.1076 155.6772 0149416  39.7338 321.4691 14.60135205695697

Śledź FENGYUN 1C DEB w czasie rzeczywistym z AllMySat

Download on the App Store